Location: Unspecified
(0.0000°N, 0.0000°E)
Time: 19:13:02
(UTC+00:00)

A-11 Canister half - Pass Details

Date: 02 August 2021
Orbit: 1526 x 1683 km, 47.3° (Epoch: 26 September)

Event Time Altitude Azimuth Distance (km) Brightness Sun altitude
Rises 20:19:31 0° 311° (NW) 4,745 12.5 -31.6°
Reaches altitude 10° 20:22:41 10° 307° (NW) 3,743 11.8 -32.3°
Maximum altitude 20:31:52 58° 231° (SW) 1,755 9.3 -34.5°
Enters shadow 20:33:52 49° 190° (S) 1,895 9.2 -34.9°
